Regional Weather Roundup
Issued by NWS

Home | Current Version | Previous Version | Text Only | Print | Product List | Glossary On
Versions: 1 2 3 4 5 6 7 8 9 10 11 12 13 14 15 16 17 18 19 20 21 22 23 24 25 26 27 28 29 30 31 32 33 34 35 36 37 38 39 40 41 42 43 44 45 46 47 48 49 50
000
ASUS44 KBMX 211110
RWRAL

ALABAMA REGIONAL WEATHER ROUNDUP
NATIONAL WEATHER SERVICE BIRMINGHAM AL
600 AM CDT FRI JUL 21 2017

NOTE: "FAIR" INDICATES FEW OR NO CLOUDS BELOW 12,000 FEET
WITH NO SIGNIFICANT WEATHER AND/OR OBSTRUCTIONS TO VISIBILITY.

THE REMARK "TC" DENOTES TEMPERATURE IN DEGREES CELSIUS.

ALZ001>011-014-016>018-020-211200-
NORTH ALABAMA

CITY           SKY/WX    TMP DP  RH WIND       PRES   REMARKS
MUSCLE SHOALS  PTCLDY    73  71  93 CALM      30.05R
HUNTSVILLE     PTCLDY    75  75 100 CALM      30.05R FOG
DECATUR        CLEAR     72  72 100 CALM      30.05R
HALEYVILLE     NOT AVBL
GADSDEN        PTCLDY    72  72 100 CALM      30.06R FOG
$$

ALZ012-013-022-023-030>036-040>044-211200-
WEST CENTRAL ALABAMA

CITY           SKY/WX    TMP DP  RH WIND       PRES   REMARKS
TUSCALOOSA     CLEAR     76  76 100 CALM      30.03R FOG
DEMOPOLIS        N/A    N/A N/A N/A CALM      30.02R HAZE
$$

ALZ015-024>026-033>036-041>044-211200-
CENTRAL ALABAMA

CITY           SKY/WX    TMP DP  RH WIND       PRES   REMARKS
BIRMINGHAM     PTCLDY    77  74  90 CALM      30.07R
MONTGOMERY     CLEAR     77  72  84 CALM      30.03R
SHELBY CO ARPT PTCLDY    76  76 100 CALM      30.05R
MAXWELL AFB    PTCLDY    75  75 100 CALM      30.02R
GREENVILLE     FAIR      75  70  84 CALM      30.02R
SELMA          FAIR      73  72  94 CALM      30.02R
PRATTVILLE     FAIR      73  73 100 CALM      30.02R
BESSEMER       FAIR      73  73 100 CALM      30.06R FOG
TALLADEGA      FAIR      72  72  98 CALM      30.05R FOG
PELL CITY      MOSUNNY   72  72 100 CALM      30.05R FOG
MARION         FAIR      75  75 100 CALM      30.03R
SYLACAUGA      FAIR      73  73 100 CALM      30.05R
$$

ALZ019-021-028-029-037-038-045>048-211200-
EAST CENTRAL ALABAMA

CITY           SKY/WX    TMP DP  RH WIND       PRES   REMARKS
ANNISTON       PTCLDY    72  71  97 CALM      30.05R FOG
ALEXANDER CITY CLEAR     72  71  98 CALM      30.04S FOG
AUBURN         CLEAR     74  73  97 CALM      30.06R
$$

ALZ051>064-211200-
SOUTHWEST ALABAMA

CITY           SKY/WX    TMP DP  RH WIND       PRES   REMARKS
MOBILE         PTCLDY    78  75  90 W5        30.03R
BROOKLEY FIELD CLEAR     81  78  91 W5        30.02R
EVERGREEN      CLEAR     74  73  97 CALM      30.03R FOG
$$

ALZ049-050-065>069-211200-
SOUTHEAST ALABAMA

CITY           SKY/WX    TMP DP  RH WIND       PRES   REMARKS
DOTHAN         PTCLDY    77  75  93 CALM      30.05R
OZARK          PTCLDY    75  73  96 CALM      30.02R FOG
TROY           CLEAR     72  72 100 CALM      30.03R FOG
EUFAULA        FAIR      74  72  93 CALM      30.01R
$$



USA.gov is the U.S. government's official web portal to all federal, state and local government web resources and services.